| time (UTC) | temp F | wind direction | speed knots | gust knots | rain 1hr in | rain 24hr in | rain mn in | humidity % | barometer mb |
| 20260503214008 | 62 | 161 | 0.9 | 3.5 | 0.00 | 0.00 | 0.00 | 33 | 1015.7 |
| 20260503213505 | 62 | 125 | 0.9 | 3.5 | 0.00 | 0.00 | 0.00 | 35 | 1015.7 |
| 20260503213025 | 62 | 26 | 0.0 | 5.2 | 0.00 | 0.00 | 0.00 | 34 | 1015.8 |
| 20260503212505 | 62 | 273 | 1.7 | 5.2 | 0.00 | 0.00 | 0.00 | 33 | 1015.7 |
| 20260503212006 | 62 | 156 | 0.0 | 5.2 | 0.00 | 0.00 | 0.00 | 33 | 1015.6 |
| 20260503211518 | 62 | 310 | 2.6 | 5.2 | 0.00 | 0.00 | 0.00 | 31 | 1015.7 |
| 20260503211011 | 62 | 5 | 1.7 | 7.0 | 0.00 | 0.00 | 0.00 | 32 | 1015.7 |
| 20260503210509 | 62 | 348 | 1.7 | 7.0 | 0.00 | 0.00 | 0.00 | 32 | 1015.8 |
| 20260503210014 | 62 | 311 | 2.6 | 7.0 | 0.00 | 0.00 | 0.00 | 32 | 1015.8 |
| 20260503205507 | 62 | 111 | 0.0 | 9.6 | 0.00 | 0.00 | 0.00 | 34 | 1015.7 |
| 20260503205010 | 62 | 360 | 1.7 | 9.6 | 0.00 | 0.00 | 0.00 | 30 | 1015.8 |
| 20260503204515 | 62 | 355 | 2.6 | 9.6 | 0.00 | 0.00 | 0.00 | 33 | 1015.8 |
| 20260503204010 | 62 | 350 | 0.9 | 9.6 | 0.00 | 0.00 | 0.00 | 32 | 1015.7 |
| 20260503203507 | 62 | 27 | 2.6 | 7.8 | 0.00 | 0.00 | 0.00 | 33 | 1015.8 |
| 20260503203016 | 62 | 311 | 0.0 | 11.3 | 0.00 | 0.00 | 0.00 | 33 | 1015.7 |
| 20260503202509 | 62 | 360 | 3.5 | 11.3 | 0.00 | 0.00 | 0.00 | 31 | 1016.0 |
| 20260503202009 | 63 | 338 | 4.3 | 10.4 | 0.00 | 0.00 | 0.00 | 30 | 1016.0 |
| 20260503201527 | 63 | 291 | 0.9 | 8.7 | 0.00 | 0.00 | 0.00 | 31 | 1016.0 |
| 20260503201008 | 62 | 190 | 0.9 | 7.8 | 0.00 | 0.00 | 0.00 | 33 | 1016.1 |
| 20260503200509 | 62 | 360 | 0.9 | 7.8 | 0.00 | 0.00 | 0.00 | 34 | 1016.0 |
| 20260503200027 | 62 | 330 | 3.5 | 7.8 | 0.00 | 0.00 | 0.00 | 34 | 1016.2 |
| 20260503195507 | 62 | 355 | 2.6 | 9.6 | 0.00 | 0.00 | 0.00 | 33 | 1016.2 |
| 20260503195007 | 62 | 28 | 2.6 | 9.6 | 0.00 | 0.00 | 0.00 | 33 | 1016.4 |
| 20260503194527 | 62 | 229 | 0.0 | 7.8 | 0.00 | 0.00 | 0.00 | 36 | 1016.4 |
| 20260503194007 | 62 | 339 | 1.7 | 7.8 | 0.00 | 0.00 | 0.00 | 34 | 1016.5 |
| 20260503193506 | 62 | 277 | 0.9 | 5.2 | 0.00 | 0.00 | 0.00 | 36 | 1016.4 |
| 20260503193020 | 61 | 118 | 1.7 | 5.2 | 0.00 | 0.00 | 0.00 | 34 | 1016.5 |
| 20260503192509 | 62 | 325 | 1.7 | 8.7 | 0.00 | 0.00 | 0.00 | 35 | 1016.7 |
| 20260503192015 | 61 | 341 | 3.5 | 8.7 | 0.00 | 0.00 | 0.00 | 33 | 1016.6 |
| 20260503191522 | 61 | 355 | 1.7 | 8.7 | 0.00 | 0.00 | 0.00 | 38 | 1016.7 |
| 20260503191009 | 60 | 348 | 2.6 | 8.7 | 0.00 | 0.00 | 0.00 | 35 | 1016.8 |
| 20260503190509 | 61 | 27 | 1.7 | 8.7 | 0.00 | 0.00 | 0.00 | 34 | 1017.1 |
| 20260503190023 | 60 | 341 | 1.7 | 7.0 | 0.00 | 0.00 | 0.00 | 35 | 1017.2 |
| 20260503185507 | 60 | 340 | 1.7 | 7.0 | 0.00 | 0.00 | 0.00 | 35 | 1017.2 |
| 20260503185009 | 61 | 355 | 1.7 | 8.7 | 0.00 | 0.00 | 0.00 | 36 | 1017.3 |
| 20260503184526 | 61 | 215 | 1.7 | 8.7 | 0.00 | 0.00 | 0.00 | 37 | 1017.4 |
| 20260503184006 | 60 | 24 | 2.6 | 8.7 | 0.00 | 0.00 | 0.00 | 35 | 1017.5 |
| 20260503183515 | 60 | 277 | 3.5 | 7.0 | 0.00 | 0.00 | 0.00 | 38 | 1017.3 |
| 20260503183027 | 61 | 355 | 0.9 | 5.2 | 0.00 | 0.00 | 0.00 | 39 | 1017.4 |
| 20260503182509 | 61 | 24 | 0.9 | 4.3 | 0.00 | 0.00 | 0.00 | 36 | 1017.5 |
| 20260503182009 | 61 | 315 | 1.7 | 5.2 | 0.00 | 0.00 | 0.00 | 38 | 1017.4 |
| 20260503181535 | 60 | 34 | 0.0 | 5.2 | 0.00 | 0.00 | 0.00 | 37 | 1017.6 |
| 20260503181008 | 60 | 334 | 1.7 | 7.8 | 0.00 | 0.00 | 0.00 | 37 | 1017.7 |
| 20260503180508 | 59 | 26 | 1.7 | 7.8 | 0.00 | 0.00 | 0.00 | 38 | 1017.6 |
| 20260503180024 | 59 | 343 | 3.5 | 7.8 | 0.00 | 0.00 | 0.00 | 36 | 1017.7 |
| 20260503175507 | 60 | 11 | 3.5 | 8.7 | 0.00 | 0.00 | 0.00 | 37 | 1017.7 |
| 20260503175009 | 59 | 86 | 2.6 | 8.7 | 0.00 | 0.00 | 0.00 | 41 | 1017.7 |
| 20260503174504 | 58 | 345 | 1.7 | 7.8 | 0.00 | 0.00 | 0.00 | 36 | 1017.7 |
| 20260503174003 | 59 | 309 | 2.6 | 7.8 | 0.00 | 0.00 | 0.00 | 37 | 1017.8 |
| 20260503173502 | 60 | 340 | 0.0 | 7.0 | 0.00 | 0.00 | 0.00 | 41 | 1017.7 |
| 20260503173013 | 59 | 346 | 2.6 | 7.0 | 0.00 | 0.00 | 0.00 | 43 | 1017.7 |
| 20260503172506 | 58 | 40 | 1.7 | 7.0 | 0.00 | 0.00 | 0.00 | 40 | 1017.8 |
| 20260503172006 | 58 | 9 | 1.7 | 7.0 | 0.00 | 0.00 | 0.00 | 40 | 1017.9 |
| 20260503171504 | 58 | 5 | 2.6 | 7.0 | 0.00 | 0.00 | 0.00 | 43 | 1017.9 |
| 20260503171004 | 58 | 10 | 0.9 | 7.0 | 0.00 | 0.00 | 0.00 | 45 | 1017.9 |
| 20260503170508 | 58 | 5 | 0.0 | 7.8 | 0.00 | 0.00 | 0.00 | 42 | 1018.1 |
| 20260503151010 | 54 | 35 | 0.9 | 8.7 | 0.00 | 0.00 | 0.00 | 42 | 1018.8 |
| 20260503150507 | 54 | 329 | 3.5 | 9.6 | 0.00 | 0.00 | 0.00 | 42 | 1018.8 |
| 20260503131010 | 49 | 348 | 0.9 | 9.6 | 0.00 | 0.00 | 0.00 | 56 | 1018.8 |
| 20260503130503 | 49 | 324 | 0.9 | 9.6 | 0.00 | 0.00 | 0.00 | 58 | 1018.8 |
| 20260503110508 | 39 | 19 | 0.0 | 0.0 | 0.00 | 0.00 | 0.00 | 87 | 1017.8 |
| 20260503090508 | 45 | 300 | 0.0 | 0.0 | 0.00 | 0.00 | 0.00 | 67 | 1015.7 |
| 20260503081527 | 48 | 24 | 0.9 | 3.5 | 0.00 | 0.00 | 0.00 | 60 | 1015.3 |
| 20260503081007 | 48 | 302 | 0.0 | 5.2 | 0.00 | 0.00 | 0.00 | 60 | 1015.3 |
| 20260503080511 | 48 | 294 | 0.9 | 5.2 | 0.00 | 0.00 | 0.00 | 60 | 1015.3 |
| 20260503072509 | 49 | 312 | 0.9 | 2.6 | 0.00 | 0.00 | 0.00 | 59 | 1015.0 |
| 20260503072009 | 49 | 340 | 0.9 | 3.5 | 0.00 | 0.00 | 0.00 | 59 | 1014.9 |
| 20260503071535 | 50 | 38 | 0.0 | 3.5 | 0.00 | 0.00 | 0.00 | 59 | 1014.6 |
| 20260503071008 | 50 | 339 | 0.9 | 3.5 | 0.00 | 0.00 | 0.00 | 59 | 1014.6 |
| 20260503070508 | 50 | 328 | 0.0 | 6.1 | 0.00 | 0.00 | 0.00 | 59 | 1014.6 |
| 20260503055006 | 51 | 52 | 0.0 | 1.7 | 0.00 | 0.00 | 0.00 | 61 | 1014.0 |
| 20260503054504 | 51 | 298 | 0.0 | 2.6 | 0.00 | 0.00 | 0.00 | 61 | 1014.1 |
| 20260503054003 | 51 | 311 | 0.0 | 2.6 | 0.00 | 0.00 | 0.00 | 61 | 1014.0 |
| 20260503053505 | 51 | 329 | 0.9 | 2.6 | 0.00 | 0.00 | 0.00 | 61 | 1014.0 |
| 20260503053002 | 51 | 51 | 0.0 | 2.6 | 0.00 | 0.00 | 0.00 | 62 | 1013.9 |
| 20260503052503 | 51 | 334 | 0.0 | 1.7 | 0.00 | 0.00 | 0.00 | 63 | 1014.0 |
| 20260503052005 | 51 | 336 | 0.9 | 2.6 | 0.00 | 0.00 | 0.00 | 63 | 1014.0 |
| 20260503051503 | 50 | 355 | 0.0 | 3.5 | 0.00 | 0.00 | 0.00 | 65 | 1014.0 |
| 20260503051003 | 50 | 69 | 0.0 | 3.5 | 0.00 | 0.00 | 0.00 | 68 | 1014.0 |
| 20260503050506 | 50 | 73 | 0.0 | 2.6 | 0.00 | 0.00 | 0.00 | 72 | 1013.9 |
| 20260503050003 | 49 | 14 | 0.0 | 2.6 | 0.00 | 0.00 | 0.00 | 76 | 1013.9 |
| 20260503045505 | 49 | 84 | 0.0 | 0.0 | 0.00 | 0.00 | 0.00 | 79 | 1014.0 |
| 20260503045010 | 49 | 84 | 0.0 | 0.0 | 0.00 | 0.00 | 0.00 | 80 | 1014.0 |
| 20260503044502 | 49 | 84 | 0.0 | 0.0 | 0.00 | 0.00 | 0.00 | 80 | 1014.0 |
| 20260503044005 | 49 | 84 | 0.0 | 0.9 | 0.00 | 0.00 | 0.00 | 80 | 1013.9 |
| 20260503043505 | 49 | 84 | 0.0 | 0.9 | 0.00 | 0.00 | 0.00 | 81 | 1013.9 |
| 20260503043003 | 49 | 84 | 0.0 | 0.0 | 0.00 | 0.00 | 0.00 | 81 | 1013.8 |
| 20260503042502 | 49 | 84 | 0.0 | 0.0 | 0.00 | 0.00 | 0.00 | 81 | 1013.7 |
| 20260503042008 | 50 | 84 | 0.0 | 0.9 | 0.00 | 0.00 | 0.00 | 81 | 1013.7 |
| 20260503041504 | 50 | 84 | 0.0 | 0.9 | 0.00 | 0.00 | 0.00 | 81 | 1013.7 |
| 20260503041003 | 50 | 84 | 0.0 | 0.0 | 0.00 | 0.00 | 0.00 | 81 | 1013.7 |
| 20260503040514 | 50 | 84 | 0.0 | 0.0 | 0.00 | 0.00 | 0.00 | 81 | 1013.8 |
| 20260503040006 | 50 | 84 | 0.0 | 0.0 | 0.00 | 0.00 | 0.00 | 81 | 1013.8 |
| 20260503035503 | 50 | 84 | 0.0 | 0.0 | 0.00 | 0.00 | 0.00 | 81 | 1013.8 |
| 20260503035006 | 50 | 84 | 0.0 | 0.0 | 0.00 | 0.00 | 0.00 | 80 | 1013.9 |
| 20260503034503 | 50 | 84 | 0.0 | 0.0 | 0.00 | 0.00 | 0.00 | 80 | 1013.9 |
| 20260503034007 | 50 | 84 | 0.0 | 0.0 | 0.00 | 0.00 | 0.00 | 79 | 1013.9 |
| 20260503033507 | 50 | 84 | 0.0 | 0.0 | 0.00 | 0.00 | 0.00 | 79 | 1013.9 |
| 20260503033002 | 50 | 84 | 0.0 | 0.0 | 0.00 | 0.00 | 0.00 | 79 | 1013.9 |
| 20260503032505 | 50 | 84 | 0.0 | 0.0 | 0.00 | 0.00 | 0.00 | 78 | 1013.9 |
| 20260503032012 | 50 | 84 | 0.0 | 0.0 | 0.00 | 0.00 | 0.00 | 79 | 1013.8 |
| 20260503031504 | 50 | 84 | 0.0 | 0.0 | 0.00 | 0.00 | 0.00 | 79 | 1013.9 |
| 20260503031010 | 50 | 84 | 0.0 | 0.0 | 0.00 | 0.00 | 0.00 | 79 | 1013.9 |
| 20260503030508 | 51 | 84 | 0.0 | 0.0 | 0.00 | 0.00 | 0.00 | 79 | 1013.9 |
| 20260503030004 | 51 | 84 | 0.0 | 0.0 | 0.00 | 0.00 | 0.00 | 78 | 1013.9 |
| 20260503025510 | 51 | 84 | 0.0 | 0.0 | 0.00 | 0.00 | 0.00 | 78 | 1013.9 |
| 20260503025010 | 51 | 84 | 0.0 | 0.0 | 0.00 | 0.00 | 0.00 | 77 | 1013.9 |
| 20260503024504 | 51 | 84 | 0.0 | 0.0 | 0.00 | 0.00 | 0.00 | 77 | 1013.9 |
| 20260503024006 | 51 | 84 | 0.0 | 0.0 | 0.00 | 0.00 | 0.00 | 77 | 1013.8 |
| 20260503023509 | 51 | 84 | 0.0 | 0.0 | 0.00 | 0.00 | 0.00 | 76 | 1013.9 |
| 20260503023005 | 51 | 84 | 0.0 | 0.0 | 0.00 | 0.00 | 0.00 | 75 | 1013.9 |
| 20260503022506 | 51 | 84 | 0.0 | 0.0 | 0.00 | 0.00 | 0.00 | 75 | 1013.9 |
| 20260503022013 | 51 | 84 | 0.0 | 0.0 | 0.00 | 0.00 | 0.00 | 74 | 1013.8 |
| 20260503021516 | 51 | 84 | 0.0 | 0.0 | 0.00 | 0.00 | 0.00 | 73 | 1013.8 |
| 20260503021011 | 51 | 84 | 0.0 | 0.0 | 0.00 | 0.00 | 0.00 | 73 | 1013.7 |
| 20260503020512 | 51 | 84 | 0.0 | 0.0 | 0.00 | 0.00 | 0.00 | 72 | 1013.6 |
| 20260503020007 | 51 | 84 | 0.0 | 0.0 | 0.00 | 0.00 | 0.00 | 73 | 1013.6 |
| 20260503015509 | 51 | 84 | 0.0 | 0.0 | 0.00 | 0.00 | 0.00 | 73 | 1013.6 |
| 20260503015012 | 52 | 84 | 0.0 | 0.0 | 0.00 | 0.00 | 0.00 | 73 | 1013.6 |
| 20260503014506 | 52 | 84 | 0.0 | 0.0 | 0.00 | 0.00 | 0.00 | 72 | 1013.6 |
| 20260503014006 | 52 | 84 | 0.0 | 0.0 | 0.00 | 0.00 | 0.00 | 72 | 1013.6 |
| 20260503013510 | 52 | 84 | 0.0 | 0.0 | 0.00 | 0.00 | 0.00 | 72 | 1013.6 |
| 20260503013008 | 52 | 84 | 0.0 | 0.0 | 0.00 | 0.00 | 0.00 | 73 | 1013.5 |
| 20260503012506 | 52 | 84 | 0.0 | 0.0 | 0.00 | 0.00 | 0.00 | 73 | 1013.4 |
| 20260503012015 | 52 | 84 | 0.0 | 0.0 | 0.00 | 0.00 | 0.00 | 73 | 1013.3 |
| 20260503011510 | 52 | 84 | 0.0 | 0.0 | 0.00 | 0.00 | 0.00 | 72 | 1013.4 |
| 20260503011007 | 52 | 84 | 0.0 | 0.0 | 0.00 | 0.00 | 0.00 | 72 | 1013.3 |
| 20260503010512 | 53 | 84 | 0.0 | 0.0 | 0.00 | 0.00 | 0.00 | 71 | 1013.3 |
| 20260503010012 | 53 | 84 | 0.0 | 0.0 | 0.00 | 0.00 | 0.00 | 71 | 1013.2 |
| 20260503005509 | 53 | 84 | 0.0 | 0.0 | 0.00 | 0.00 | 0.00 | 71 | 1013.2 |
| 20260503005012 | 53 | 84 | 0.0 | 0.0 | 0.00 | 0.00 | 0.00 | 70 | 1013.1 |
| 20260503004513 | 53 | 84 | 0.0 | 0.0 | 0.00 | 0.00 | 0.00 | 70 | 1013.0 |
| 20260503004008 | 53 | 84 | 0.0 | 0.0 | 0.00 | 0.00 | 0.00 | 69 | 1012.9 |
| 20260503003513 | 53 | 84 | 0.0 | 0.0 | 0.00 | 0.00 | 0.00 | 69 | 1012.8 |
| 20260503003026 | 54 | 84 | 0.0 | 0.0 | 0.00 | 0.00 | 0.00 | 68 | 1012.7 |
| 20260503002506 | 54 | 84 | 0.0 | 0.0 | 0.00 | 0.00 | 0.00 | 67 | 1012.7 |
| 20260503002004 | 54 | 84 | 0.0 | 0.0 | 0.00 | 0.00 | 0.00 | 67 | 1012.7 |
| 20260503001512 | 54 | 84 | 0.0 | 0.0 | 0.00 | 0.00 | 0.00 | 66 | 1012.6 |
| 20260503001006 | 55 | 84 | 0.0 | 0.0 | 0.00 | 0.00 | 0.00 | 65 | 1012.6 |
| 20260503000503 | 55 | 84 | 0.0 | 0.0 | 0.00 | 0.00 | 0.00 | 63 | 1012.6 |
| 20260503000024 | 55 | 84 | 0.0 | 0.0 | 0.00 | 0.00 | 0.00 | 61 | 1012.5 |
| 20260502235507 | 56 | 84 | 0.0 | 0.0 | 0.00 | 0.00 | 0.00 | 56 | 1012.3 |
| 20260502235003 | 56 | 84 | 0.0 | 0.0 | 0.00 | 0.00 | 0.00 | 56 | 1012.2 |
| 20260502234530 | 56 | 84 | 0.0 | 0.9 | 0.00 | 0.00 | 0.00 | 55 | 1012.0 |
| 20260502234009 | 56 | 84 | 0.0 | 1.7 | 0.00 | 0.00 | 0.00 | 54 | 1012.0 |
| 20260502233504 | 57 | 84 | 0.0 | 1.7 | 0.00 | 0.00 | 0.00 | 53 | 1012.0 |
| 20260502233015 | 57 | 321 | 0.0 | 0.0 | 0.00 | 0.00 | 0.00 | 54 | 1011.9 |
| 20260502232507 | 57 | 321 | 0.0 | 0.0 | 0.00 | 0.00 | 0.00 | 54 | 1011.8 |
| 20260502232006 | 57 | 320 | 0.0 | 0.0 | 0.00 | 0.00 | 0.00 | 53 | 1011.8 |
| 20260502231526 | 57 | 341 | 0.0 | 0.0 | 0.00 | 0.00 | 0.00 | 53 | 1011.7 |
| 20260502231013 | 58 | 35 | 0.0 | 0.0 | 0.00 | 0.00 | 0.00 | 51 | 1011.6 |
| 20260502230504 | 58 | 28 | 0.0 | 0.0 | 0.00 | 0.00 | 0.00 | 50 | 1011.6 |
| 20260502230022 | 58 | 28 | 0.0 | 0.0 | 0.00 | 0.00 | 0.00 | 50 | 1011.6 |
| 20260502225508 | 58 | 23 | 0.0 | 0.0 | 0.00 | 0.00 | 0.00 | 50 | 1011.6 |
| 20260502225004 | 58 | 5 | 0.0 | 0.0 | 0.00 | 0.00 | 0.00 | 51 | 1011.5 |
| 20260502224517 | 58 | 360 | 0.0 | 0.0 | 0.00 | 0.00 | 0.00 | 48 | 1011.4 |
| 20260502224012 | 59 | 329 | 0.0 | 1.7 | 0.00 | 0.00 | 0.00 | 48 | 1011.5 |
| 20260502223503 | 59 | 320 | 0.0 | 1.7 | 0.00 | 0.00 | 0.00 | 50 | 1011.4 |
| 20260502223034 | 59 | 337 | 0.0 | 1.7 | 0.00 | 0.00 | 0.00 | 47 | 1011.4 |
| 20260502222511 | 59 | 61 | 0.0 | 1.7 | 0.00 | 0.00 | 0.00 | 49 | 1011.5 |
| 20260502222010 | 59 | 41 | 0.0 | 1.7 | 0.00 | 0.00 | 0.00 | 49 | 1011.5 |
| 20260502221522 | 59 | 73 | 0.0 | 0.9 | 0.00 | 0.00 | 0.00 | 50 | 1011.4 |
| 20260502221015 | 59 | 26 | 0.0 | 0.9 | 0.00 | 0.00 | 0.00 | 46 | 1011.5 |
| 20260502220508 | 59 | 49 | 0.0 | 1.7 | 0.00 | 0.00 | 0.00 | 46 | 1011.6 |
| 20260502220022 | 59 | 333 | 0.0 | 3.5 | 0.00 | 0.00 | 0.00 | 46 | 1011.6 |
| 20260502215510 | 59 | 355 | 0.0 | 3.5 | 0.00 | 0.00 | 0.00 | 47 | 1011.7 |
| 20260502215007 | 59 | 69 | 0.0 | 3.5 | 0.00 | 0.00 | 0.00 | 49 | 1011.8 |
| 20260502214524 | 59 | 302 | 0.0 | 3.5 | 0.00 | 0.00 | 0.00 | 49 | 1011.7 |